• In Hungary
  • List of Countries
  • For 7 days
  • Water Temperature
  • Satellite Maps
  • Weather Map
  • News
  • Weather Widgets
  • user-avatar
    Login

    Hourly Weather Nevinnomyssk

    Today, 25 September, Tuesday

    Time Temperature Precipitation Wind Pressure Humidity
    00:00 +16°C° 0 mm 2 mps 707 mmHg 81%
    01:00 +16°C° 0 mm 2 mps 706 mmHg 78%
    02:00 +16°C° 0 mm 2 mps 706 mmHg 74%
    03:00 +16°C° 0 mm 2 mps 706 mmHg 71%
    04:00 +15°C° 0 mm 2 mps 706 mmHg 68%
    05:00 +15°C° 0 mm 2 mps 706 mmHg 65%
    06:00 +15°C° 0 mm 2 mps 705 mmHg 62%
    07:00 +18°C° 0 mm 2 mps 706 mmHg 56%
    08:00 +21°C° 0 mm 1 mps 706 mmHg 50%
    09:00 +24°C° 0 mm 1 mps 706 mmHg 44%
    10:00 +25°C° 0 mm 1 mps 706 mmHg 42%
    11:00 +27°C° 0 mm 2 mps 706 mmHg 39%
    12:00 +28°C° 0 mm 2 mps 706 mmHg 37%
    13:00 +28°C° 0 mm 3 mps 707 mmHg 40%
    14:00 +27°C° 0 mm 4 mps 707 mmHg 44%
    15:00 +26°C° 0 mm 5 mps 707 mmHg 47%
    16:00 +22°C° 0.1 mm 5 mps 707 mmHg 58%
    17:00 +19°C° 0.1 mm 5 mps 707 mmHg 69%
    18:00 +15°C° 0.1 mm 5 mps 708 mmHg 79%
    19:00 +14°C° 0.2 mm 4 mps 708 mmHg 81%
    20:00 +13°C° 0.2 mm 4 mps 709 mmHg 82%
    21:00 +12°C° 0.2 mm 4 mps 709 mmHg 84%
    22:00 +12°C° 0 mm 4 mps 709 mmHg 84%
    23:00 +11°C° 0 mm 4 mps 710 mmHg 83%

    Tomorrow, 26 September, Wednesday

    Time Temperature Precipitation Wind Pressure Humidity
    00:00 +11°C° 0 mm 4 mps 710 mmHg 83%
    01:00 +10°C° 0.1 mm 4 mps 710 mmHg 84%
    02:00 +10°C° 0.1 mm 3 mps 710 mmHg 85%
    03:00 +9°C° 0.1 mm 3 mps 710 mmHg 86%
    04:00 +9°C° 0.3 mm 3 mps 711 mmHg 86%
    05:00 +9°C° 0.3 mm 3 mps 711 mmHg 87%
    06:00 +8°C° 0.3 mm 3 mps 711 mmHg 87%
    07:00 +8°C° 0.7 mm 3 mps 711 mmHg 87%
    08:00 +8°C° 0.7 mm 2 mps 712 mmHg 86%
    09:00 +8°C° 0.7 mm 2 mps 712 mmHg 85%
    10:00 +9°C° 0.2 mm 2 mps 712 mmHg 81%
    11:00 +10°C° 0.2 mm 2 mps 712 mmHg 77%
    12:00 +10°C° 0.2 mm 2 mps 712 mmHg 73%
    13:00 +12°C° 0 mm 2 mps 712 mmHg 67%
    14:00 +13°C° 0 mm 2 mps 712 mmHg 61%
    15:00 +14°C° 0 mm 2 mps 712 mmHg 56%
    16:00 +13°C° 0 mm 1 mps 712 mmHg 58%
    17:00 +13°C° 0 mm 1 mps 712 mmHg 60%
    18:00 +12°C° 0 mm 1 mps 712 mmHg 62%
    19:00 +11°C° 0.1 mm 1 mps 713 mmHg 65%
    20:00 +11°C° 0.1 mm 1 mps 713 mmHg 68%
    21:00 +11°C° 0.1 mm 1 mps 713 mmHg 71%
    22:00 +10°C° 0.3 mm 1 mps 713 mmHg 74%
    23:00 +10°C° 0.3 mm 1 mps 713 mmHg 78%

    Day after tomorrow, 27 September, Thursday

    Time Temperature Precipitation Wind Pressure Humidity
    00:00 +9°C° 0.3 mm 1 mps 713 mmHg 81%
    01:00 +9°C° 0.3 mm 1 mps 713 mmHg 83%
    02:00 +9°C° 0.3 mm 1 mps 713 mmHg 84%
    03:00 +8°C° 0.3 mm 1 mps 713 mmHg 86%
    04:00 +8°C° 0.2 mm 1 mps 713 mmHg 87%
    05:00 +8°C° 0.2 mm 1 mps 713 mmHg 88%
    06:00 +8°C° 0.2 mm 1 mps 713 mmHg 90%
    07:00 +9°C° 0.1 mm 1 mps 713 mmHg 85%
    08:00 +10°C° 0.1 mm 1 mps 713 mmHg 80%
    09:00 +10°C° 0.1 mm 2 mps 714 mmHg 75%
    10:00 +13°C° 0 mm 2 mps 714 mmHg 69%
    11:00 +14°C° 0 mm 2 mps 714 mmHg 64%
    12:00 +16°C° 0 mm 2 mps 713 mmHg 58%
    13:00 +16°C° 0 mm 2 mps 713 mmHg 56%
    14:00 +17°C° 0 mm 2 mps 713 mmHg 54%
    15:00 +18°C° 0 mm 2 mps 713 mmHg 53%
    16:00 +16°C° 0 mm 2 mps 713 mmHg 57%
    17:00 +15°C° 0 mm 1 mps 713 mmHg 62%
    18:00 +14°C° 0 mm 1 mps 712 mmHg 66%
    19:00 +13°C° 0 mm 1 mps 712 mmHg 69%
    20:00 +12°C° 0 mm 1 mps 713 mmHg 71%
    21:00 +11°C° 0 mm 1 mps 713 mmHg 74%
    22:00 +11°C° 0 mm 1 mps 713 mmHg 76%
    23:00 +11°C° 0 mm 1 mps 712 mmHg 78%

    28 September, Friday

    Time Temperature Precipitation Wind Pressure Humidity
    00:00 +10°C° 0 mm 1 mps 712 mmHg 79%
    01:00 +10°C° 0 mm 1 mps 712 mmHg 80%
    02:00 +10°C° 0 mm 1 mps 712 mmHg 81%
    03:00 +10°C° 0 mm 1 mps 712 mmHg 82%
    04:00 +9°C° 0 mm 1 mps 712 mmHg 82%
    05:00 +9°C° 0 mm 1 mps 712 mmHg 83%
    06:00 +9°C° 0 mm 1 mps 712 mmHg 83%
    07:00 +11°C° 0 mm 1 mps 712 mmHg 76%
    08:00 +14°C° 0 mm 1 mps 712 mmHg 69%
    09:00 +16°C° 0 mm 2 mps 712 mmHg 61%
    10:00 +18°C° 0 mm 2 mps 712 mmHg 57%
    11:00 +20°C° 0 mm 3 mps 712 mmHg 52%
    12:00 +21°C° 0 mm 3 mps 712 mmHg 47%
    13:00 +22°C° 0 mm 3 mps 711 mmHg 47%
    14:00 +22°C° 0 mm 3 mps 711 mmHg 46%
    15:00 +24°C° 0 mm 3 mps 710 mmHg 46%
    16:00 +21°C° 0 mm 3 mps 710 mmHg 52%
    17:00 +19°C° 0 mm 3 mps 709 mmHg 59%
    18:00 +17°C° 0 mm 2 mps 709 mmHg 65%
    19:00 +16°C° 0 mm 2 mps 709 mmHg 68%
    20:00 +15°C° 0 mm 2 mps 709 mmHg 71%
    21:00 +15°C° 0 mm 2 mps 708 mmHg 74%
    22:00 +14°C° 0 mm 2 mps 708 mmHg 74%
    23:00 +14°C° 0 mm 2 mps 708 mmHg 74%

    29 September, Saturday

    Time Temperature Precipitation Wind Pressure Humidity
    00:00 +14°C° 0 mm 2 mps 708 mmHg 74%
    01:00 +14°C° 0 mm 2 mps 707 mmHg 72%
    02:00 +14°C° 0 mm 2 mps 707 mmHg 70%
    03:00 +14°C° 0 mm 2 mps 707 mmHg 69%
    04:00 +13°C° 0 mm 2 mps 707 mmHg 67%
    05:00 +13°C° 0 mm 2 mps 707 mmHg 66%
    06:00 +13°C° 0 mm 2 mps 707 mmHg 65%
    07:00 +15°C° 0 mm 2 mps 707 mmHg 60%
    08:00 +19°C° 0 mm 1 mps 707 mmHg 55%
    09:00 +21°C° 0 mm 1 mps 707 mmHg 50%
    10:00 +21°C° 0 mm 2 mps 707 mmHg 47%
    11:00 +24°C° 0 mm 2 mps 707 mmHg 44%
    12:00 +26°C° 0 mm 3 mps 707 mmHg 42%
    13:00 +26°C° 0 mm 3 mps 707 mmHg 43%
    14:00 +26°C° 0 mm 4 mps 706 mmHg 43%
    15:00 +27°C° 0 mm 4 mps 706 mmHg 44%
    16:00 +25°C° 0 mm 3 mps 706 mmHg 52%
    17:00 +22°C° 0 mm 3 mps 706 mmHg 59%
    18:00 +20°C° 0 mm 3 mps 705 mmHg 66%
    19:00 +19°C° 0 mm 3 mps 705 mmHg 69%
    20:00 +18°C° 0 mm 3 mps 705 mmHg 71%
    21:00 +17°C° 0 mm 2 mps 705 mmHg 74%
    22:00 +17°C° 0 mm 2 mps 705 mmHg 72%
    23:00 +16°C° 0 mm 2 mps 705 mmHg 70%

    30 September, Sunday

    Time Temperature Precipitation Wind Pressure Humidity
    00:00 +16°C° 0 mm 2 mps 705 mmHg 67%
    01:00 +16°C° 0 mm 2 mps 705 mmHg 65%
    02:00 +16°C° 0 mm 2 mps 705 mmHg 63%
    03:00 +16°C° 0 mm 2 mps 705 mmHg 61%
    04:00 +16°C° 0 mm 2 mps 705 mmHg 60%
    05:00 +16°C° 0 mm 1 mps 705 mmHg 59%
    06:00 +16°C° 0 mm 1 mps 705 mmHg 58%
    07:00 +17°C° 0.1 mm 2 mps 706 mmHg 59%
    08:00 +18°C° 0.1 mm 2 mps 706 mmHg 59%
    09:00 +20°C° 0.1 mm 2 mps 706 mmHg 60%
    10:00 +20°C° 0.2 mm 2 mps 706 mmHg 60%
    11:00 +21°C° 0.2 mm 3 mps 707 mmHg 60%
    12:00 +21°C° 0.2 mm 3 mps 707 mmHg 60%
    13:00 +21°C° 0.5 mm 3 mps 707 mmHg 61%
    14:00 +21°C° 0.5 mm 3 mps 707 mmHg 63%
    15:00 +21°C° 0.5 mm 3 mps 706 mmHg 64%
    16:00 +19°C° 1.7 mm 2 mps 706 mmHg 72%
    17:00 +18°C° 1.7 mm 2 mps 707 mmHg 81%
    18:00 +16°C° 1.7 mm 2 mps 707 mmHg 89%
    19:00 +16°C° 1.2 mm 2 mps 707 mmHg 91%
    20:00 +16°C° 1.2 mm 1 mps 707 mmHg 92%
    21:00 +15°C° 1.2 mm 1 mps 707 mmHg 94%
    22:00 +15°C° 0.1 mm 1 mps 707 mmHg 94%
    23:00 +15°C° 0.1 mm 1 mps 707 mmHg 94%
    Show more